Home   Weather   35°28'N, 79°10'W   Past weeks
Flag for USA

Past Weather in 35°28'N, 79°10'W, USA — Yesterday and Last 2 Weeks

Now
86 °F

More clouds than sun.


Feels Like: 92 °F
Forecast: 98 / 77 °F
Wind: 7 mph from Southeast

Location: Raleigh-Durham International Airport

Current Time: Jul 16, 2019 at 8:55:04 pm

Latest Report: Jul 16, 2019 at 7:51 pm


Visibility: 10 mi

Pressure: 30.04 "Hg

Humidity: 61%

Dew Point: 71 °F

Location of 35°28'N, 79°10'WLocation

Past Weather in 35°28'N, 79°10'W — Graph

°F

35°28'N, 79°10'W Temperature Yesterday

Maximum temperature yesterday: 94 °F (at 2:51 pm)
Minimum temperature yesterday: 70 °F (at 5:51 am)
Average temperature yesterday: 82 °F

High & Low Weather Summary for the Past Weeks

 TemperatureHumidityPressure
High95 °F (Jul 3, 1:51 pm)100% (Jul 8, 6:26 am)30.15 "Hg (Jul 8, 6:26 am)
Low70 °F (Jul 2, 3:51 am)30% (Jul 14, 5:51 pm)29.82 "Hg (Jul 8, 4:51 pm)
Average81 °F73%29.98 "Hg
* Reported Jul 1 6:51 pm — Jul 16 6:51 pm, 35°28'N, 79°10'W. Weather by CustomWeather, © 2019

Note: Actual official high and low records may vary slightly from our data, if they occured in-between our weather recording intervals... More about our weather records

Advertising

35°28'N, 79°10'W Weather History for the Previous 24 Hours

Scroll right to see more
 ConditionsComfort  
Time TempWeatherWind HumidityBarometerVisibility
6:51 pm
Tue, Jul 16
88 °FMostly cloudy.6 mph52%30.03 "Hg10 mi
5:51 pm86 °FBroken clouds.8 mph61%30.04 "Hg10 mi
4:51 pm91 °FCloudy.8 mph52%30.04 "Hg10 mi
3:51 pm93 °FBroken clouds.3 mph49%30.05 "Hg10 mi
2:51 pm91 °FBroken clouds.8 mph49%30.06 "Hg10 mi
1:51 pm91 °FLight rain. Broken clouds.7 mph49%30.08 "Hg10 mi
12:51 pm95 °FBroken clouds.3 mph41%30.09 "Hg10 mi
11:51 am93 °FPartly sunny.5 mph46%30.10 "Hg10 mi
10:51 am90 °FPartly sunny.5 mph52%30.10 "Hg10 mi
9:51 am86 °FPartly sunny.No wind70%30.10 "Hg10 mi
8:51 am79 °FBroken clouds.No wind88%30.11 "Hg10 mi
7:51 am74 °FPartly sunny.No wind97%30.10 "Hg10 mi
6:51 am72 °FFog.No wind97%30.09 "Hg6 mi
5:51 am72 °FPartly cloudy.No wind97%30.08 "Hg8 mi
4:51 am72 °FPassing clouds.No wind100%30.06 "Hg10 mi
3:51 am72 °FPassing clouds.No wind97%30.05 "Hg10 mi
2:51 am72 °FPassing clouds.No wind97%30.05 "Hg10 mi
1:51 am73 °FPassing clouds.No wind94%30.07 "Hg10 mi
12:51 am73 °FPassing clouds.3 mph97%30.08 "Hg10 mi
11:51 pm
Mon, Jul 15
73 °FPassing clouds.No wind97%30.07 "Hg10 mi
10:51 pm73 °FOvercast.No wind94%30.07 "Hg10 mi
10:04 pm73 °FMostly cloudy.3 mph94%30.08 "Hg10 mi
8:51 pm81 °FThunderstorms. Partly cloudy.5 mph62%30.06 "Hg7 mi
Weather by CustomWeather, © 2019

See weather overview

LIVE PARTIAL LUNAR ECLIPSE – Watch the eclipse as it happens